星链-1057 (STARLINK-1057 )

导读 | 豆包AI

STARLINK-1057是美国SpaceX星链星座的卫星,于2019年11月11日发射升空,属于星链项目早期部署的组网卫星。它运行在近地轨道,配备氪气霍尔推进器,依托星链星座的卫星通信技术,为全球提供低延迟宽带互联网服务。作为星链卫星互联网布局的组成部分,该卫星助力SpaceX构建覆盖全球的卫星通信网络,推动偏远地区网络覆盖和应急通信能力提升,目前已在轨运行多年,是星链星座不断扩张中早期部署的一颗关键卫星。

基本信息
目录编号:
44762
目录名称:
STARLINK-1057
国际标识:
2019-074BB
轨道中心:
EARTH
卫星名称:
星链-1057
卫星全名:
星链-1057 (STARLINK-1057 )
卫星状态:
已陨落 最后检测时间 2025-10-04
发射日期:
2019-11-11 UTC
国别 :
美国 (US)
星等 :
--
轨道信息
数据来源 国际轨道数据
星历时间: 2025-10-04T08:05:00+0800
轨道信息已过期161天
半长轴: 6532.286km
偏心率: 0.0004696
轨道倾角: 53.029°
近地点辐角 258.299°
升交点赤经 123.232°
平近点角 101.754°
近地点: 151.083km
远地点: 157.219km
周期: 87.570分钟
每日圈数: 16.443907
详细信息
固有亮度:
5
最大亮度:
2.5
卫星平台:
Starlink V1.0
覆盖范围:
全球
运营商:
太空探索技术公司
运营商所在国:
美国
制造商(研发单位):
太空探索技术公司
制造商所在国:
美国
使用方式:
暂无
卫星简介
星链(Starlink)计划是由太空探索技术公司(SpaceX)提出的一个巨型低轨卫星互联网星座项目,计划在2019年至2024年间在太空搭建由约1.2万颗卫星组成的“星链”网络,其中1584颗将部署在地球上空550千米处的近地轨道,并从2020年开始工作。该卫星仍在工作。